Flag for Micronesia Weather past 2 weeks in Kolonia, Ponape, Micronesia

Now
79 °F

Passing clouds.


Feels Like: 83 °F
Forecast: 75 / 87 °F
Wind: 3 mph from Southeast

Location: Pohnpei

Current Time: Jul 29, 2014 at 8:50:24 PM

Latest Report: Jul 29, 2014 at 7:54 PM


Visibility: 15 mi

Pressure: 29.91 "Hg

Humidity: 94%

Dew point: 77 °F

Location of KoloniaLocation

Historic Weather in Kolonia — Graph

°F

Kolonia temperature yesterday

Maximum temperature yesterday: 91 °F (at 1:55 PM)
Minimum temperature yesterday: 75 °F (at 4:55 AM)
Average temperature yesterday: 81 °F

Past Weeks' High & Low Weather Summary

 TemperatureHumidityPressure
High91 °F (Jul 29, 12:52 PM)99% (Jul 20, 4:54 AM)29.93 "Hg (Jul 20, 4:54 AM)
Low74 °F (Jul 29, 4:53 AM)57% (Jul 29, 12:52 PM)29.75 "Hg (Jul 23, 3:55 AM)
Average80 °F87%29.83 "Hg
* Reported Jul 14 6:50 PM — Jul 29 6:52 PM, Kolonia, Weather by CustomWeather, © 2014

Note: Actual official high and low records may vary slightly from our data, if they occured in-between our weather recording intervals... More about our weather records

Advertising

Kolonia weather history for previous 24 hours

 ConditionsComfort  
Time TempWeatherWind HumidityBarometerVisibility
6:52 PM
Jul 29
81 °FPassing clouds.3 mph88%29.89 "Hg15 mi
5:52 PM84 °FBroken clouds.3 mph77%29.88 "Hg15 mi
4:53 PM86 °FBroken clouds.7 mph73%29.85 "Hg15 mi
3:54 PM88 °FMore clouds than sun.3 mph73%29.85 "Hg15 mi
2:51 PM90 °FMore clouds than sun.6 mph68%29.85 "Hg15 mi
12:52 PM91 °FBroken clouds.8 mph57%29.88 "Hg15 mi
11:54 AM86 °FScattered clouds.6 mph70%29.88 "Hg15 mi
10:53 AM91 °FScattered clouds.3 mph59%29.89 "Hg15 mi
9:52 AM88 °FScattered clouds.3 mph71%29.90 "Hg15 mi
8:51 AM86 °FScattered clouds.3 mph75%29.90 "Hg15 mi
7:51 AM81 °FScattered clouds.5 mph83%29.90 "Hg15 mi
6:54 AM75 °FPassing clouds.5 mph91%29.88 "Hg15 mi
5:51 AM74 °FPassing clouds.3 mph91%29.86 "Hg15 mi
4:53 AM74 °FPassing clouds.3 mph91%29.85 "Hg15 mi
3:52 AM75 °FPassing clouds.3 mph89%29.85 "Hg15 mi
2:50 AM75 °FPassing clouds.5 mph92%29.85 "Hg15 mi
1:54 AM76 °FPartly cloudy.3 mph96%29.85 "Hg15 mi
11:52 PM
Jul 28
76 °FOvercast.5 mph95%29.88 "Hg15 mi
10:53 PM78 °FOvercast.3 mph91%29.90 "Hg15 mi
9:54 PM77 °FPassing clouds.3 mph94%29.89 "Hg15 mi
8:52 PM78 °FPassing clouds.3 mph94%29.88 "Hg15 mi
Weather by CustomWeather, © 2014

See weather overviewHow to use our weather pages